MPEC 2005-X75 : 2000 YE29

The following Minor Planet Electronic Circular may be linked-to from your own Web pages, but must not otherwise be redistributed electronically.


Read MPEC 2005-X74 Read MPEC 2005-X76


M.P.E.C. 2005-X75                                Issued 2005 Dec. 14, 20:44 UT

     The Minor Planet Electronic Circulars contain information on unusual
         minor planets and routine data on comets.  They are published
   on behalf of Commission 20 of the International Astronomical Union by the
          Minor Planet Center, Smithsonian Astrophysical Observatory,
                          Cambridge, MA 02138, U.S.A.

                  Supported in part by the Brinson Foundation
                  Supported in part by the TABASGO Foundation
             Prepared using the Tamkin Foundation Computer Network

                              MPC@CFA.HARVARD.EDU
          URL http://cfa-www.harvard.edu/iau/mpc.html  ISSN 1523-6714

                                   2000 YE29

                           Revision to MPEC 2001-A03

Additional Observations:
     K00Y29E  C2005 12 10.09565 05 33 10.66 +09 22 51.6          18.7   EX075147
     K00Y29E  C2005 12 10.10810 05 33 09.82 +09 22 56.1          18.7   EX075147
     K00Y29E  C2005 12 10.12042 05 33 08.86 +09 23 01.5                 EX075147
     K00Y29E  C2005 12 10.14841 05 33 06.98 +09 23 10.4          19.1   EX075147
     K00Y29E  C2005 12 13.94200 05 28 52.46 +09 46 45.5          19.1   EX075147
     K00Y29E  C2005 12 13.96532 05 28 50.71 +09 46 55.6                 EX075147

Observer details:
147 Osservatorio Astronomico di Suno.  Observers D. Crespi, S. Foglia,
    G. Galli, S. Minuto.  Measurers S. Foglia, G. Galli.  0.40-m f/4 reflector
    + CCD.

Orbital elements:
2000 YE29
Epoch 2006 Mar. 6.0 TT = JDT 2453800.5                  MPC
M 349.72204              (2000.0)            P               Q
n   0.19173272     Peri.   48.61673     -0.90445900     -0.35635928
a   2.9785523      Node   109.30237     +0.27789083     -0.90922628
e   0.5172137      Incl.   14.38304     +0.32362109     -0.21521067
P   5.14           H   16.9           G   0.15           U   1
Residuals in seconds of arc
001222 699  0.1-  0.5+    001229 402  0.5-  0.5-    010216 704  0.1+  0.2-
001222 699  0.1-  0.1-    001229 402  0.2-  0.4-    010216 704  0.0   0.0
001222 699  0.3-  1.1-    001229 402  0.2-  0.2+    010216 704  0.2+  0.0
001222 699  0.5-  1.1+    001229 402  0.2-  0.2-    010216 704  0.3+  0.2-
001222 696  0.0   0.1-    001230 704  0.0   0.1+    010216 704  0.3+  0.1-
001222 696  0.3+  0.2-    001230 704  0.0   0.0     010225 118  0.2-  0.5+
001222 118  0.2+  0.5+    001230 704  0.1+  0.1+    010225 118  0.4-  0.5+
001222 118  0.5+  0.7+    001230 704  0.0   0.7+    010226 739  0.5+  0.0
001222 118  0.3-  1.2+    001230 704  0.1+  0.3+    010226 649  0.3-  0.2-
001222 046  0.1-  0.0     010101 106  0.2-  0.4+    010226 739  0.1+  0.7-
001222 046  0.1+  0.5-    010101 106  0.1+  0.6+    010226 649  0.1+  0.3-
001222 046  0.6+  0.0     010101 106  0.1-  0.5+    010226 739  0.4+  0.4-
001222 046  0.7+  0.1+    010101 118  0.1-  0.4+    010226 649  0.0   0.1+
001223 557  0.4-  0.2+    010101 118  0.2+  0.4+    010301 711  0.0   0.0
001223 557  0.5+  0.1+    010101 118  0.2-  0.4+    010301 711  0.2-  0.1+
001223 611  0.1-  0.1+    010104 704  0.1+  0.2-    010301 711  0.3-  0.1-
001223 611  0.1+  0.3+    010104 704  0.3+  0.1+    010304 739  1.4-  0.0
001223 587  0.6-  0.2+    010104 704  0.1-  0.1-    010304 739  0.5-  0.5-
001223 587  0.3-  0.4-    010104 704  0.3+  0.2-    010304 739  0.2-  0.4-
001224 557  0.3+  0.6+    010104 704  0.2+  0.1+    010314 704  0.9-  0.5-
001224 557  0.4-  0.1-    010115 118  0.1+  0.4+    010314 704  0.4-  0.3-
001224 557  0.2+  0.2-    010115 118  0.1+  0.4+    010314 704  0.2-  0.7-
001224 557  0.2-  0.5-    010118 704  0.4+  0.1+    010314 704  0.2-  0.4-
001224 557  0.4-  0.3-    010118 704  0.5+  0.3-    010314 704  0.1+  0.2-
001224 926  0.0   0.5-    010118 704  0.1+  0.1+    010331 699  0.6+  0.6+
001224 926  0.3-  0.1+    010118 704  0.1+  0.5-    010331 699  0.0   0.1+
001224 926  0.1+  0.0     010118 704  0.1+  0.6-    010331 699  0.3+  0.2+
001224 046  1.2+  0.2+    010126 704  0.0   0.3+    010331 711  0.3-  0.4+
001224 046  0.2-  0.7-    010126 704  0.4-  0.8+    010331 711  0.2-  0.4+
001224 046  0.7-  0.4-    010126 704  0.3-  0.1+    010331 699  0.0   0.6+
001224 046  0.0   0.0     010126 704  0.7-  0.4+    010331 711  0.5-  0.1+
001225 912 (2.2+  1.4+)   010126 704  0.6-  1.0+    010413 704  1.8+  0.3-
001225 912 (3.7+  4.8+)   010204 704  0.0   0.1+    010413 704  0.5+  1.3-
001225 912  1.4+  1.3+    010204 704  0.6-  0.4+    010413 704 (0.4+  2.5-)
001226 926  0.2+  0.1-    010204 704  0.6+  0.6-    010413 704  1.3+  0.8-
001226 926  0.1-  0.2-    010204 704  0.4-  1.1-    010511 644  0.7+  0.4+
001226 926  0.2+  0.2+    010204 704  0.5+  0.0     010511 644  0.8+  0.4+
001227 046  0.0   0.0     010213 704  0.1-  0.4+    010511 644  0.8+  0.2+
001227 046  0.1-  0.5+    010213 704  0.1-  0.2+    010624 644  0.4-  0.3-
001227 046  0.6-  0.1+    010213 704  0.4-  0.2-    010624 644  0.4-  0.2+
001227 046  0.4+  0.5+    010213 704  0.6-  0.1-    010624 644  0.1-  0.1+
001229 557  0.1+  0.1-    010213 704  0.5-  0.2-    051210 147  1.2+  1.0-
001229 557  0.4+  0.1-    010215 704  0.4+  0.0     051210 147  1.1+  0.7-
001229 557  0.1+  0.0     010215 704  0.2+  0.1+    051210 147  0.9-  0.6+
001229 670 (0.6+  5.3+)   010215 704  0.2+  0.0     051210 147  1.2-  0.1+
001229 670  0.4-  0.2+    010215 704  0.1+  0.0     051213 147  0.7+  0.7-
001229 670 (4.3-  1.1+)   010215 704  0.2+  0.4-    051213 147  0.4-  0.1-

Ephemeris:
2000 YE29                a,e,i = 2.98, 0.52, 14                  q = 1.4380
Date    TT    R. A. (2000) Decl.     Delta      r     Elong.  Phase     V
2005 12 06    05 37.42   +09 02.1    1.034    1.996   162.4     8.6    19.1
2005 12 16    05 26.47   +10 01.4    0.966    1.937   166.6     6.8    18.8
2005 12 26    05 14.29   +11 28.8    0.922    1.879   160.7    10.0    18.7
2006 01 05    05 02.82   +13 21.7    0.903    1.822   150.1    15.6    18.8
2006 01 15    04 54.06   +15 34.0    0.904    1.768   138.9    21.4    19.0
2006 01 25    04 49.45   +17 58.3    0.921    1.715   128.3    26.8    19.1
2006 02 04    04 49.84   +20 28.1    0.951    1.665   118.6    31.3    19.2
2006 02 14    04 55.51   +22 57.7    0.987    1.619   110.1    34.9    19.4
2006 02 24    05 06.30   +25 22.1    1.028    1.576   102.7    37.8    19.5
2006 03 06    05 21.98   +27 36.7    1.071    1.538    96.3    39.9    19.6
2006 03 16    05 42.18   +29 36.2    1.115    1.506    90.9    41.3    19.6
2006 03 26    06 06.46   +31 15.1    1.158    1.479    86.3    42.3    19.7
2006 04 05    06 34.36   +32 27.5    1.201    1.458    82.4    42.8    19.8
2006 04 15    07 05.24   +33 07.8    1.244    1.445    79.2    43.0    19.8
2006 04 25    07 38.31   +33 11.7    1.289    1.438    76.5    42.8    19.9
2006 05 05    08 12.74   +32 36.3    1.337    1.440    74.3    42.4    20.0
2006 05 15    08 47.59   +31 21.7    1.388    1.448    72.3    41.7    20.0
2006 05 25    09 22.06   +29 30.2    1.444    1.463    70.7    40.8    20.1
2006 06 04    09 55.56   +27 06.5    1.506    1.486    69.1    39.6    20.2
2006 06 14    10 27.69   +24 17.1    1.575    1.514    67.6    38.3    20.3
2006 06 24    10 58.27   +21 08.9    1.653    1.548    66.0    36.8    20.4
2006 07 04    11 27.30   +17 48.6    1.738    1.588    64.3    35.2    20.6
2006 07 14    11 54.86   +14 22.8    1.831    1.631    62.4    33.5    20.7
2006 07 24    12 21.11   +10 56.7    1.932    1.679    60.3    31.7    20.8

Kyle E. Smalley              (C) Copyright 2005 MPC           M.P.E.C. 2005-X75

Read MPEC 2005-X74 Read MPEC 2005-X76


Our Web policy. Index to the CBAT/MPC/ICQ pages.

MPC

Valid HTML 4.01!